星链-30863 (STARLINK-30863 )

导读 | 豆包AI

STARLINK-30863是美国太空探索技术公司SpaceX星链互联网星座的卫星,于2024年2月25日发射入轨,归属美国。星链星座旨在为全球提供低延迟、高速率的卫星互联网服务,该卫星的发射进一步扩充了星链低轨卫星星座规模,助力覆盖更多区域,提升星座整体网络服务能力。

基本信息
目录编号:
59027
目录名称:
STARLINK-30863
国际标识:
2024-038E
轨道中心:
EARTH
卫星名称:
星链-30863
卫星全名:
星链-30863 (STARLINK-30863 )
卫星状态:
在轨 (已飞行795 天)
发射日期:
2024-02-25 UTC
国别 :
美国 (US)
星等 :
--
轨道信息
数据来源 国际轨道数据
星历时间: 2026-04-30T06:59:07+0800
21小时前
查看轨道信息
半长轴: 6861.143km
偏心率: 0.0001588
轨道倾角: 43.004°
近地点辐角 273.550°
升交点赤经 97.928°
平近点角 86.517°
近地点: 481.916km
远地点: 484.096km
周期: 94.266分钟
每日圈数: 15.275946
详细信息
固有亮度:
5
最大亮度:
0.3
卫星平台:
Starlink v2.0 mini
覆盖范围:
全球
运营商:
太空探索技术公司
运营商所在国:
美国
制造商(研发单位):
太空探索技术公司
制造商所在国:
美国
使用方式:
暂无
卫星简介
星链(Starlink)计划是由太空探索技术公司(SpaceX)提出的一个巨型低轨卫星互联网星座项目,计划在2019年至2024年间在太空搭建由约1.2万颗卫星组成的“星链”网络,其中1584颗将部署在地球上空550千米处的近地轨道,并从2020年开始工作。该卫星仍在工作。
2D轨道图
3D轨道图
轨道高度分析图
轨道倾角分析图
轨道综合分析图
查看轨道综合分析图